Location: Julian California
(33.0790°N, 116.6010°W)
Time: 19:11:31
(UTC-07:00)

Cosmos 2341 Rocket - Pass Details

Date: 19 May 2017
Orbit: 968 x 1005 km, 82.9° (Epoch: 19 August)

Event Time Altitude Azimuth Distance (km) Brightness Sun altitude
Rises 22:58:50 0° 350° (N) 3,703 8.0 -31.4°
Reaches altitude 10° 23:01:22 10° 348° (NNW) 2,756 7.2 -31.6°
Enters shadow 23:07:20 67° 285° (WNW) 1,075 4.2 -32.2°
